User: anonymous   Login
Location: Goheenville
(40.9070°N, 79.3720°W)
Time: 14:47:07
(UTC-04:00)
Language:

Cosmos 1727 Rocket - Orbit

View from above orbital plane
View from above orbital plane
View from above satellite
View from above satellite

Ground track
Ground track

The orbit data is extracted from the following two-line orbital elements,

1 16511U 86008B   16121.53454038 -.00000006  00000-0 -21560-4 0  9995
2 16511  82.9446 165.9466 0024034 359.0812 108.6121 13.75809680519536
Epoch (UTC): 30 April 2016 12:49:44
Eccentricity: 0.0024034
inclination: 82.9446°
perigee height: 961 km
apogee height: 996 km
right ascension of ascending node: 165.9466°
argument of perigee: 359.0812°
revolutions per day: 13.75809680
mean anomaly at epoch: 108.6121°
orbit number at epoch: 51953

The dashed part of the orbit path shows where the satellite is in the earth's shadow,  

DLR